SUPERBIRD 8

Last updated on May 21, 2019, 3:10 a.m. UTC

1 43271U 18033A   19140.77757552 -.00000102  00000-0  00000+0 0  9995
2 43271   0.0111 309.7118 0001587 132.0243 238.3020  1.00271411  4141
UTC
Height (km)
Latitude
Longitude
Inclination
Orbital Period
UTC large
Height (km)
Speed (km/s)
/
Latitude / Longitude
Inclination (degrees)
Orbital Period (minutes)
Azimuth
Elevation
Range (km)
Doppler Factor
iOS Compass Heading
iOS Angle

Next 30 passes for location: Hong Kong

Rise time Rise Azimuth (degrees) Set time Set Azimuth (degrees) Duration Max altitude (degrees)

No matching passes for this satellites